Home   Weather   Waco   Past weeks

Flag for USA Past Weather in Waco, Texas, USA — Yesterday and Last 2 Weeks

Now
72 °F

Clear.


Feels Like: 67 °F
Forecast: 73 / 89 °F
Wind: 6 mph from North

Location: Waco Regional Airport

Current Time: Aug 30, 2016 at 6:04:27 AM

Latest Report: Aug 30, 2016 at 4:51 AM


Visibility: 10 mi

Pressure: 29.99 "Hg

Humidity: 97%

Dew Point: 71 °F

Location of WacoLocation

Past Weather in Waco — Graph

°F

Waco Temperature Yesterday

Maximum temperature yesterday: 92 °F (at 3:51 PM)
Minimum temperature yesterday: 71 °F (at 2:51 AM)
Average temperature yesterday: 79 °F

High & Low Weather Summary for the Past Weeks

 TemperatureHumidityPressure
High94 °F (Aug 23, 2:51 PM)100% (Aug 16, 8:53 PM)30.12 "Hg (Aug 16, 8:53 PM)
Low71 °F (Aug 15, 6:51 PM)44% (Aug 23, 2:51 PM)29.83 "Hg (Aug 19, 6:51 PM)
Average79 °F83%30.00 "Hg
* Reported Aug 15 4:51 AM — Aug 30 4:51 AM, Waco, Weather by CustomWeather, © 2016

Note: Actual official high and low records may vary slightly from our data, if they occured in-between our weather recording intervals... More about our weather records

Advertising

Waco Weather History for the Previous 24 Hours

Scroll right to see more
 ConditionsComfort  
Time TempWeatherWind HumidityBarometerVisibility
4:51 AM
Tue, Aug 30
72 °FClear.6 mph97%29.99 "Hg10 mi
3:51 AM73 °FClear.6 mph94%30.00 "Hg10 mi
2:51 AM73 °FClear.5 mph97%30.01 "Hg10 mi
1:51 AM74 °FClear.6 mph91%30.00 "Hg10 mi
12:51 AM75 °FClear.9 mph90%30.00 "Hg10 mi
11:51 PM
Mon, Aug 29
75 °FClear.5 mph94%30.01 "Hg10 mi
10:51 PM76 °FPassing clouds.5 mph94%30.02 "Hg10 mi
9:51 PM76 °FMostly cloudy.7 mph94%30.02 "Hg10 mi
8:51 PM77 °FPartly sunny.6 mph90%29.99 "Hg10 mi
7:51 PM77 °FPassing clouds.No wind90%29.98 "Hg10 mi
6:51 PM77 °FThunderstorms. Sunny.No wind88%29.97 "Hg10 mi
5:59 PM80 °FThunderstorms. Broken clouds.20 mph76%29.98 "Hg10 mi
4:51 PM91 °FScattered clouds.12 mph54%29.93 "Hg10 mi
3:51 PM92 °FScattered clouds.13 mph52%29.93 "Hg10 mi
2:51 PM91 °FScattered clouds.12 mph54%29.96 "Hg10 mi
1:51 PM89 °FBroken clouds.12 mph59%30.00 "Hg10 mi
12:51 PM88 °FBroken clouds.10 mph61%30.01 "Hg10 mi
11:51 AM87 °FBroken clouds.14 mph67%30.03 "Hg10 mi
10:51 AM84 °FPassing clouds.12 mph72%30.04 "Hg10 mi
9:51 AM80 °FPassing clouds.8 mph81%30.04 "Hg10 mi
8:51 AM74 °FLight rain. Broken clouds.7 mph97%30.03 "Hg10 mi
7:51 AM72 °FPassing clouds.7 mph100%30.04 "Hg9 mi
6:51 AM72 °FPassing clouds.6 mph100%30.02 "Hg8 mi
Weather by CustomWeather, © 2016

See weather overviewHow to use our weather pages